Powrót do katalogu

FENGYUN 1C DEB

AktywnySSO
NORAD 30609·DEBRIS·🇨🇳 China

Wystrzelony May 10, 1999 z Taiyuan Satellite Launch Center

Loading…

Następne Przeloty (najbliższe 24 godziny)

TLE

ŚwieżeSource: Space-Track

Epoka: Sep 14, 2026, 11:02 UTC

1 30609U 99025AMQ 26257.45995733  .00002502  00000-0  12739-2 0  9993
2 30609  98.5605 167.0612 0117492 346.8514  12.9603 14.13138265996202

Śledź FENGYUN 1C DEB w czasie rzeczywistym z AllMySat

Download on the App Store